Probability
0 0 0 0 0 0 0 0 0 0 0 0 0 0 0 0 0 0 0 0 0 0 0 0 0 0 0 0 0 0 0 0 1 2 3 4 4 5 7 10 12 12 12
0 0 0 0 0 0 0 0 0 0 0 0 0 0 0 0 0 0 0 0 0 0 0 0 0 0 0 0 0 0 0 0 1 2 3 4 5 6 8 10 11 12 12
0 0 0 0 0 0 0 0 0 0 0 0 0 0 0 0 0 0 0 0 0 0 0 0 0 0 0 0 0 0 0 0 0 1 2 4 6 7 8 9 10 12 13
0 0 0 0 0 0 0 0 0 0 0 0 0 0 0 0 0 0 0 0 0 0 0 0 0 0 0 0 0 0 0 0 0 1 2 3 4 6 7 8 10 12 13
0 0 0 0 0 0 0 0 0 0 0 0 0 0 1 1 0 1 1 1 0 0 0 0 0 0 0 0 0 0 0 0 1 2 3 3 4 5 6 7 8 9 10
0 0 0 0 0 0 0 0 0 0 0 0 0 0 1 2 1 1 2 2 1 0 0 0 0 0 0 0 0 0 0 1 1 2 2 3 3 5 5 6 6 6 5
0 0 0 0 0 0 0 0 0 0 0 0 0 0 1 2 2 1 1 2 2 1 0 0 0 0 0 0 0 0 0 0 0 1 1 1 2 3 4 4 4 3 3
0 0 0 0 0 0 0 0 0 0 0 0 0 0 0 1 1 0 1 2 2 1 1 0 0 0 0 0 0 0 0 0 0 0 0 0 1 1 2 3 3 3 3
0 0 0 0 0 0 0 0 0 0 0 0 0 0 0 0 0 0 0 1 1 1 1 1 0 0 0 0 0 0 0 0 0 0 0 0 0 0 1 1 2 3 3
0 0 0 0 0 0 0 0 0 0 0 0 0 0 0 0 0 0 0 0 0 1 1 1 1 0 0 0 0 0 0 0 0 0 0 1 0 0 0 0 1 1 2
0 0 0 0 0 0 0 0 0 0 0 0 0 0 0 0 0 0 0 0 0 0 0 0 0 0 0 0 0 0 0 0 0 0 0 1 1 1 0 0 0 0 1
0 0 0 0 0 0 0 0 0 0 0 0 0 0 0 0 0 0 0 0 0 0 0 0 0 0 0 0 0 0 0 0 0 0 0 2 3 2 1 0 0 0 0
0 0 0 0 0 0 0 0 0 0 0 0 0 0 0 0 0 0 0 0 0 0 0 0 0 0 0 0 0 0 0 0 0 0 0 1 2 2 1 1 1 0 0
0 0 0 0 0 0 0 0 0 0 0 0 0 0 0 0 0 0 0 0 0 0 0 0 0 0 0 0 0 0 0 0 0 0 0 0 0 1 1 2 1 0 0
0 0 0 0 0 0 0 0 0 0 0 0 0 0 0 0 0 0 0 0 0 0 0 0 0 0 0 0 0 0 0 0 0 0 0 0 0 0 1 1 1 0 0
0 0 0 0 0 0 0 0 0 0 0 0 0 0 0 0 0 0 0 0 0 0 0 0 0 0 0 0 0 0 0 0 0 0 0 0 0 0 0 0 0 0 0
0 0 0 0 0 0 0 0 0 0 0 0 0 0 0 0 0 0 0 0 0 0 0 0 0 0 0 0 0 0 0 0 0 0 0 0 0 0 0 0 0 0 0
0 0 0 0 0 0 0 0 0 0 0 0 0 0 0 0 0 0 0 0 0 0 0 0 0 0 0 0 0 0 0 0 0 0 0 0 0 0 0 0 0 0 0
0 0 0 0 0 0 0 0 0 0 0 0 0 0 0 0 0 0 0 0 0 0 0 0 0 0 0 0 0 0 0 0 0 0 0 0 0 0 0 0 0 0 0
0 0 0 0 0 0 0 0 0 0 0 0 0 0 0 0 0 0 0 0 0 0 0 0 0 0 0 0 0 0 0 0 0 0 0 0 0 0 0 0 0 0 0
0 0 0 0 0 0 0 0 0 0 0 0 0 0 0 0 0 0 0 0 0 0 0 0 0 0 0 0 0 0 0 0 0 0 0 0 0 0 0 0 0 0 0
0 0 0 0 0 0 0 0 0 0 0 0 0 0 0 0 0 0 0 0 0 0 0 0 0 0 0 0 0 0 0 0 0 0 0 0 1 1 1 0 0 0 0
0 0 0 0 0 0 0 0 0 0 0 0 0 0 0 0 0 0 0 0 0 0 0 0 0 0 0 0 0 0 0 0 0 0 0 0 1 2 2 1 0 0 0
0 0 0 0 0 0 0 0 0 0 0 0 0 0 0 0 0 0 0 0 0 0 0 0 0 0 0 0 0 0 0 0 0 0 0 0 0 1 1 1 1 0 0
0 0 0 0 0 0 0 0 0 0 0 0 0 0 0 0 0 0 0 0 0 0 0 0 0 0 0 0 0 0 0 0 0 0 0 0 0 0 1 1 1 1 0
0 0 0 0 0 0 0 0 0 0 0 0 0 0 0 0 0 0 0 0 0 0 0 0 0 0 0 0 0 0 0 0 0 0 0 0 0 0 0 1 2 2 1
Wind_Speed
4 3 3 3 4 4 3 3 3 4 3 3 2 2 2 2 2 2 3 6 6 6 5 5 5 5 5 5 4 4 4 4 4 4 4 4 4 5 5 6 7 8 9
4 4 4 4 4 4 4 4 3 3 2 2 2 2 2 2 2 1 2 5 6 6 6 5 5 5 5 5 5 5 5 4 3 3 3 3 4 5 6 7 8 9 10
6 5 5 5 5 4 4 4 4 3 2 2 2 3 3 3 3 2 2 2 3 6 6 6 6 5 5 5 5 5 5 4 3 3 3 4 5 6 7 8 9 10 10
7 5 5 5 5 5 4 3 4 3 3 3 3 3 3 3 4 3 2 2 3 3 5 7 5 5 6 6 6 5 5 5 4 5 5 6 6 7 8 9 10 10 10
7 6 5 5 6 5 5 5 5 4 4 3 3 3 3 4 3 3 4 4 4 3 3 5 5 5 6 6 6 6 5 5 5 5 5 6 6 6 8 9 9 10 10
7 6 5 7 6 5 5 5 5 4 4 3 3 4 4 3 4 5 4 4 4 4 4 4 2 4 5 6 6 5 5 5 4 4 5 5 6 7 7 8 9 9 9
6 6 5 7 6 6 6 7 5 5 4 3 2 3 4 5 5 5 4 4 4 4 4 4 3 3 3 5 5 5 5 4 4 4 4 5 6 6 7 8 8 8 9
6 5 6 5 6 5 7 7 6 4 4 4 3 1 2 3 4 5 4 4 5 4 4 4 4 3 3 2 5 5 4 3 4 4 4 4 5 5 6 6 7 7 8
6 6 7 6 6 6 6 6 6 6 4 5 5 4 2 3 2 3 5 5 5 4 4 4 4 4 3 3 3 4 3 2 3 3 3 3 3 4 5 5 6 7 7
5 5 6 6 6 6 5 6 7 5 5 4 4 4 5 4 2 2 3 5 5 5 5 4 4 4 4 3 3 5 4 3 2 2 2 2 3 4 5 5 6 6 7
4 5 5 5 6 5 6 6 6 6 5 5 4 3 4 3 3 2 3 3 4 4 4 5 4 4 4 4 3 6 4 3 2 2 2 1 2 4 4 5 6 7 7
3 5 4 4 5 5 6 6 5 6 6 6 4 4 4 4 4 3 3 3 3 3 4 4 4 4 4 3 5 6 4 3 2 1 1 1 1 3 4 4 5 6 7
3 4 4 4 5 5 5 5 5 5 6 6 5 4 4 4 3 3 3 3 3 2 3 2 3 3 3 3 3 4 3 3 2 2 1 0 1 2 3 4 4 5 6
3 4 4 4 5 4 4 4 4 5 5 5 6 5 4 4 4 3 3 3 2 2 2 3 3 4 4 3 4 4 1 2 2 2 1 1 2 2 3 4 4 4 5
3 3 4 4 5 5 5 4 4 5 5 5 5 5 4 4 4 4 3 4 4 3 3 3 3 4 4 4 4 3 2 3 2 2 2 2 2 3 4 4 5 5 5
3 3 3 4 4 4 5 4 4 5 5 5 4 5 5 4 4 4 3 3 4 4 3 3 3 4 5 4 3 4 3 2 3 3 3 3 3 4 5 5 5 6 6
3 3 3 3 4 4 4 4 4 4 4 5 4 5 5 6 4 4 4 4 3 3 3 3 3 4 5 5 4 4 4 4 1 2 3 4 5 5 5 6 6 6 6
2 3 3 3 4 4 4 4 4 4 4 5 5 5 5 4 5 5 4 4 4 4 4 5 4 4 6 6 5 5 4 3 4 1 3 4 5 5 6 7 7 7 7
2 2 2 2 3 3 3 3 3 3 4 4 5 5 5 5 5 4 4 4 4 4 4 4 5 4 5 5 6 5 5 4 5 3 4 6 6 6 6 7 7 8 8
2 2 2 2 2 2 2 2 3 3 3 3 4 4 5 6 6 6 5 5 5 5 4 4 4 4 5 5 5 5 5 4 5 5 4 4 5 8 8 8 8 8 9
3 3 2 2 3 2 4 4 2 2 3 3 3 4 5 6 7 7 6 6 6 5 5 5 5 5 5 5 5 6 6 6 6 4 5 5 5 5 6 9 10 10 9
3 3 2 3 3 3 5 6 5 2 3 3 3 4 3 3 4 3 4 6 7 7 7 6 6 6 7 7 6 6 7 7 6 4 6 6 5 6 6 6 5 7 9
3 3 3 3 3 4 4 4 5 4 3 4 4 4 4 4 5 5 3 4 3 4 6 8 8 8 8 8 8 9 8 8 8 7 7 8 7 7 6 5 6 9 10
3 3 3 2 2 3 4 3 4 3 2 2 3 4 4 5 7 8 7 7 6 5 5 6 7 8 8 9 9 10 10 10 9 7 7 9 8 8 7 6 8 10 11
3 3 3 2 2 3 3 1 5 2 1 2 3 4 5 5 7 9 8 7 7 6 3 5 8 9 10 11 10 8 8 8 8 7 6 7 8 8 8 8 7 10 11
3 3 3 2 1 1 3 1 6 3 2 2 2 2 2 5 7 9 9 8 8 8 9 8 8 8 9 7 8 9 7 8 9 8 6 6 8 7 7 7 6 6 7
Wind_Direction
29 26 29 14 7 5 1 354 349 12 353 11 19 12 27 43 42 28 86 73 50 45 44 40 38 36 29 28 39 49 64 56 48 58 73 82 100 111 111 114 112 110 113
34 19 29 24 18 7 4 352 10 7 13 29 32 35 23 48 60 45 74 103 86 57 44 43 40 36 40 36 35 53 62 60 49 57 83 94 112 122 122 122 121 117 114
38 32 25 29 21 12 10 9 22 5 31 46 54 46 51 35 41 57 58 56 101 95 67 50 43 38 46 52 44 56 57 61 53 65 101 105 106 110 119 124 125 122 119
39 35 29 30 23 18 19 25 19 21 36 33 47 53 63 58 50 54 68 73 53 63 90 68 53 47 51 55 55 60 61 59 62 73 89 96 96 99 110 118 123 122 122
33 42 31 24 27 27 24 23 31 23 41 41 62 63 56 61 58 51 55 57 63 50 61 91 82 63 55 55 58 64 66 65 68 77 85 97 102 109 112 117 122 125 127
33 36 37 34 27 35 32 33 37 39 36 31 60 74 67 66 62 56 43 50 49 50 48 52 86 100 82 63 61 72 67 66 76 84 93 104 108 116 120 124 126 129 131
37 40 29 35 25 36 32 32 28 48 43 24 60 91 92 76 61 57 45 41 54 48 50 49 44 44 104 102 72 68 67 65 75 96 98 110 117 117 120 130 136 137 134
36 33 34 38 38 35 37 34 30 27 44 26 7 37 89 100 66 56 48 43 39 45 42 43 49 44 34 72 90 74 54 54 69 92 101 107 122 126 126 134 144 146 146
40 33 34 29 32 34 38 30 27 30 37 44 29 5 16 45 35 63 47 47 37 31 38 35 36 39 40 42 78 90 59 47 64 90 105 117 133 137 142 147 152 154 159
47 37 34 28 32 36 37 37 38 29 24 38 51 34 31 36 358 50 55 44 37 32 27 28 28 29 34 38 54 60 50 38 53 78 102 120 143 157 154 163 164 164 171
49 44 34 33 34 38 39 39 36 31 35 32 32 35 40 35 17 27 39 23 40 39 27 25 28 28 27 29 28 47 34 21 38 74 82 113 163 172 168 173 176 176 176
62 57 39 37 38 40 40 39 41 44 37 37 29 31 27 25 20 24 25 25 27 31 30 31 25 26 21 22 37 36 23 14 21 41 53 50 214 190 184 183 185 187 190
68 58 47 41 42 41 41 40 43 40 45 40 34 31 32 31 19 10 9 15 14 31 38 45 33 23 17 11 31 13 38 22 8 12 3 294 260 217 207 198 190 197 202
63 60 55 51 50 44 45 45 38 43 41 44 43 37 32 35 23 15 5 350 351 26 34 38 31 23 11 1 22 314 23 44 353 329 308 263 239 219 212 202 194 209 217
77 72 69 67 62 49 43 44 44 45 43 38 37 39 33 35 24 19 5 351 340 342 12 28 13 9 356 355 347 322 343 43 334 307 288 273 251 232 226 221 213 216 223
86 80 77 76 75 64 57 47 48 37 44 52 33 32 28 27 24 17 5 359 348 336 334 357 349 349 349 332 340 326 328 251 249 262 272 268 265 253 240 230 221 219 225
111 95 74 67 65 59 58 58 43 42 33 44 44 41 36 25 18 15 7 0 353 341 323 330 342 340 333 330 333 323 312 296 275 194 249 263 259 256 252 242 231 225 227
101 99 88 77 68 58 50 49 43 38 33 31 32 31 31 28 19 13 2 359 358 344 327 329 328 337 333 333 327 315 306 300 297 208 232 254 257 254 250 246 239 232 230
122 119 112 84 72 64 59 52 47 38 37 31 24 18 17 15 8 11 356 357 350 346 333 319 326 331 320 328 322 310 305 301 292 265 229 230 239 246 247 240 239 239 235
126 113 106 88 73 63 46 37 39 28 31 33 28 20 13 8 1 354 349 350 342 332 329 321 319 321 320 324 313 316 311 308 295 293 287 267 237 232 236 236 236 238 236
123 112 106 95 76 55 30 8 22 16 15 20 19 21 27 16 9 355 346 341 334 323 320 319 318 317 318 324 326 321 309 306 296 289 290 278 262 253 236 226 227 231 235
117 113 106 88 76 61 40 10 342 1 6 7 7 4 19 8 8 348 348 340 334 325 324 317 313 314 319 322 321 308 307 303 299 303 297 287 278 270 260 254 226 221 232
127 120 109 102 88 74 56 28 354 336 352 360 354 358 3 6 336 344 339 282 292 296 300 307 309 314 313 319 313 305 301 298 294 301 298 287 278 272 266 252 218 224 230
142 135 121 116 107 85 70 35 328 301 350 354 354 349 343 351 10 344 328 324 326 327 318 303 306 308 311 311 304 299 297 290 284 277 270 276 278 277 274 263 223 222 227
154 150 138 149 149 118 95 8 300 309 311 334 347 351 344 346 18 336 318 321 319 319 298 285 295 292 292 288 290 289 288 287 286 285 276 275 283 286 281 270 245 218 223
164 163 156 174 179 145 97 340 300 294 303 319 325 322 20 350 349 328 318 319 316 321 318 307 290 278 281 278 266 276 288 288 288 288 282 280 286 291 282 272 267 248 234